Time,TemperatureF,DewpointF,PressureIn,WindDirection,WindDirectionDegrees,WindSpeedMPH,WindSpeedGustMPH,Humidity,HourlyPrecipIn,Conditions,Clouds,dailyrainin,SoftwareType,DateUTC
2013-01-13 00:04:00,19.0,3.9,30.08,ENE,77,7.2,7.2,51,0.00,,---,0.00,VWS V14.01,2013-01-13 08:04:00,
2013-01-13 00:09:00,18.7,3.6,30.08,ENE,70,7.6,8.1,51,0.00,,---,0.00,VWS V14.01,2013-01-13 08:09:00,
2013-01-13 00:15:00,18.5,3.4,30.08,East,82,5.8,8.1,51,0.00,,---,0.00,VWS V14.01,2013-01-13 08:15:00,
2013-01-13 00:20:00,18.1,3.1,30.08,ENE,78,6.3,7.2,51,0.00,,---,0.00,VWS V14.01,2013-01-13 08:20:00,
2013-01-13 00:25:00,18.1,3.1,30.05,ENE,75,6.7,6.7,51,0.00,,---,0.00,VWS V14.01,2013-01-13 08:25:00,
2013-01-13 00:31:00,18.1,3.1,30.05,East,80,5.8,8.1,51,0.00,,---,0.00,VWS V14.01,2013-01-13 08:31:00,
2013-01-13 00:37:00,18.1,3.7,30.05,ENE,73,2.7,3.6,52,0.00,,---,0.00,VWS V14.01,2013-01-13 08:37:00,
2013-01-13 00:43:00,18.0,3.5,30.08,ENE,75,3.1,4.0,52,0.00,,---,0.00,VWS V14.01,2013-01-13 08:43:00,
2013-01-13 00:48:00,18.0,3.5,30.08,ENE,77,0.0,0.0,52,0.00,,---,0.00,VWS V14.01,2013-01-13 08:48:00,
2013-01-13 00:54:00,17.8,3.4,30.08,East,100,2.2,2.7,52,0.00,,---,0.00,VWS V14.01,2013-01-13 08:54:00,
2013-01-13 01:00:00,17.8,3.4,30.08,ESE,106,0.0,3.1,52,0.00,,---,0.00,VWS V14.01,2013-01-13 09:00:00,
2013-01-13 01:05:00,18.1,3.7,30.08,ENE,76,6.3,7.6,52,0.00,,---,0.00,VWS V14.01,2013-01-13 09:05:00,
2013-01-13 01:11:00,18.3,3.9,30.08,East,99,0.0,3.1,52,0.00,,---,0.00,VWS V14.01,2013-01-13 09:11:00,
2013-01-13 01:17:00,18.3,3.9,30.08,East,90,0.0,0.0,52,0.00,,---,0.00,VWS V14.01,2013-01-13 09:17:00,
2013-01-13 01:23:00,18.3,3.9,30.08,ENE,61,4.0,5.4,52,0.00,,---,0.00,VWS V14.01,2013-01-13 09:23:00,
2013-01-13 01:29:00,17.8,3.4,30.08,ENE,70,2.7,4.0,52,0.00,,---,0.00,VWS V14.01,2013-01-13 09:29:00,
2013-01-13 01:35:00,17.8,3.4,30.08,ENE,68,5.4,5.4,52,0.00,,---,0.00,VWS V14.01,2013-01-13 09:35:00,
2013-01-13 01:40:00,19.4,5.5,30.08,ENE,62,8.3,8.3,54,0.00,,---,0.00,VWS V14.01,2013-01-13 09:40:00,
2013-01-13 01:45:00,20.1,5.5,30.08,ENE,60,6.3,6.3,52,0.00,,---,0.00,VWS V14.01,2013-01-13 09:45:00,
2013-01-13 01:51:00,20.8,6.2,30.08,ENE,67,8.3,8.3,52,0.00,,---,0.00,VWS V14.01,2013-01-13 09:51:00,
2013-01-13 01:56:00,21.2,6.5,30.08,ENE,63,8.7,8.7,52,0.00,,---,0.00,VWS V14.01,2013-01-13 09:56:00,
2013-01-13 02:01:00,21.7,6.4,30.08,NE,54,8.7,10.1,51,0.00,,---,0.00,VWS V14.01,2013-01-13 10:01:00,
2013-01-13 02:06:00,22.1,6.8,30.08,NE,52,8.1,8.7,51,0.00,,---,0.00,VWS V14.01,2013-01-13 10:06:00,
2013-01-13 02:12:00,22.1,6.8,30.08,NE,45,8.1,8.1,51,0.00,,---,0.00,VWS V14.01,2013-01-13 10:12:00,
2013-01-13 02:17:00,22.1,6.8,30.08,ENE,67,7.2,7.6,51,0.00,,---,0.00,VWS V14.01,2013-01-13 10:17:00,
2013-01-13 02:22:00,21.7,6.4,30.08,East,97,4.5,4.5,51,0.00,,---,0.00,VWS V14.01,2013-01-13 10:22:00,
2013-01-13 02:28:00,21.4,6.1,30.08,East,86,5.8,6.7,51,0.00,,---,0.00,VWS V14.01,2013-01-13 10:28:00,
2013-01-13 02:33:00,21.2,5.9,30.08,ENE,69,4.9,5.8,51,0.00,,---,0.00,VWS V14.01,2013-01-13 10:33:00,
2013-01-13 02:39:00,21.0,5.7,30.08,ENE,61,7.6,7.6,51,0.00,,---,0.00,VWS V14.01,2013-01-13 10:39:00,
2013-01-13 02:44:00,21.2,5.9,30.08,ENE,72,5.4,6.3,51,0.00,,---,0.00,VWS V14.01,2013-01-13 10:44:00,
2013-01-13 02:49:00,21.6,6.2,30.08,NE,51,8.3,8.3,51,0.00,,---,0.00,VWS V14.01,2013-01-13 10:49:00,
2013-01-13 02:55:00,22.1,6.8,30.08,NNE,28,7.6,8.3,51,0.00,,---,0.00,VWS V14.01,2013-01-13 10:55:00,
2013-01-13 03:00:00,22.6,7.2,30.08,NE,43,8.3,8.3,51,0.00,,---,0.00,VWS V14.01,2013-01-13 11:00:00,
2013-01-13 03:06:00,22.8,7.4,30.08,NE,38,5.8,8.7,51,0.00,,---,0.00,VWS V14.01,2013-01-13 11:06:00,
2013-01-13 03:12:00,22.8,7.4,30.08,ENE,57,7.6,9.2,51,0.00,,---,0.00,VWS V14.01,2013-01-13 11:12:00,
2013-01-13 03:18:00,23.0,6.9,30.08,NE,46,6.3,8.3,50,0.00,,---,0.00,VWS V14.01,2013-01-13 11:18:00,
2013-01-13 03:23:00,23.0,6.9,30.08,NE,51,8.1,9.6,50,0.00,,---,0.00,VWS V14.01,2013-01-13 11:23:00,
2013-01-13 03:28:00,23.0,6.9,30.08,ENE,63,4.9,5.8,50,0.00,,---,0.00,VWS V14.01,2013-01-13 11:28:00,
2013-01-13 03:34:00,23.0,6.9,30.08,ENE,59,7.2,8.1,50,0.00,,---,0.00,VWS V14.01,2013-01-13 11:34:00,
2013-01-13 03:39:00,23.0,6.9,30.08,ENE,59,6.3,8.3,50,0.00,,---,0.00,VWS V14.01,2013-01-13 11:39:00,
2013-01-13 03:45:00,23.5,7.4,30.08,ENE,75,6.7,7.6,50,0.00,,---,0.00,VWS V14.01,2013-01-13 11:45:00,
2013-01-13 03:50:00,23.5,7.4,30.08,NE,49,5.4,8.1,50,0.00,,---,0.00,VWS V14.01,2013-01-13 11:50:00,
2013-01-13 03:56:00,23.4,7.3,30.08,East,83,5.4,8.7,50,0.00,,---,0.00,VWS V14.01,2013-01-13 11:56:00,
2013-01-13 04:01:00,23.5,7.4,30.08,NNE,23,8.3,8.3,50,0.00,,---,0.00,VWS V14.01,2013-01-13 12:01:00,
2013-01-13 04:07:00,24.3,8.1,30.08,NE,54,9.6,12.8,50,0.00,,---,0.00,VWS V14.01,2013-01-13 12:07:00,
2013-01-13 04:13:00,24.6,8.4,30.08,ENE,65,10.1,12.8,50,0.00,,---,0.00,VWS V14.01,2013-01-13 12:13:00,
2013-01-13 04:19:00,25.2,8.2,30.08,NE,50,8.7,13.2,48,0.00,,---,0.00,VWS V14.01,2013-01-13 12:19:00,
2013-01-13 04:24:00,25.3,8.4,30.08,NE,41,8.3,9.2,48,0.00,,---,0.00,VWS V14.01,2013-01-13 12:24:00,
2013-01-13 04:30:00,25.3,8.4,30.08,NE,43,6.3,9.2,48,0.00,,---,0.00,VWS V14.01,2013-01-13 12:30:00,
2013-01-13 04:35:00,25.5,8.6,30.08,ENE,59,11.0,15.0,48,0.00,,---,0.00,VWS V14.01,2013-01-13 12:35:00,
2013-01-13 04:40:00,25.3,8.4,30.08,NE,39,7.6,10.5,48,0.00,,---,0.00,VWS V14.01,2013-01-13 12:40:00,
2013-01-13 04:46:00,25.3,8.4,30.08,NE,38,8.3,8.3,48,0.00,,---,0.00,VWS V14.01,2013-01-13 12:46:00,
2013-01-13 04:51:00,25.3,8.4,30.08,ENE,57,11.0,11.0,48,0.00,,---,0.00,VWS V14.01,2013-01-13 12:51:00,
2013-01-13 04:57:00,25.3,8.4,30.08,NE,48,11.0,11.0,48,0.00,,---,0.00,VWS V14.01,2013-01-13 12:57:00,
2013-01-13 05:02:00,25.2,8.2,30.08,NE,51,11.0,11.0,48,0.00,,---,0.00,VWS V14.01,2013-01-13 13:02:00,
2013-01-13 05:08:00,25.0,8.1,30.08,NE,45,8.1,10.5,48,0.00,,---,0.00,VWS V14.01,2013-01-13 13:08:00,
2013-01-13 05:15:00,24.8,7.9,30.08,NE,50,8.7,8.7,48,0.00,,---,0.00,VWS V14.01,2013-01-13 13:15:00,
2013-01-13 05:20:00,24.4,7.6,30.08,NE,52,6.3,10.1,48,0.00,,---,0.00,VWS V14.01,2013-01-13 13:20:00,
2013-01-13 05:26:00,24.4,7.6,30.08,ENE,61,6.3,6.3,48,0.00,,---,0.00,VWS V14.01,2013-01-13 13:26:00,
2013-01-13 05:31:00,24.4,7.6,30.08,NNE,33,8.1,13.2,48,0.00,,---,0.00,VWS V14.01,2013-01-13 13:31:00,
2013-01-13 05:37:00,24.3,7.4,30.08,NE,55,10.5,10.5,48,0.00,,---,0.00,VWS V14.01,2013-01-13 13:37:00,
2013-01-13 05:43:00,23.9,7.1,30.11,NE,54,7.6,7.6,48,0.00,,---,0.00,VWS V14.01,2013-01-13 13:43:00,
2013-01-13 05:48:00,23.9,7.1,30.11,ENE,67,8.7,10.1,48,0.00,,---,0.00,VWS V14.01,2013-01-13 13:48:00,
2013-01-13 05:54:00,23.9,7.1,30.11,ENE,63,6.3,8.7,48,0.00,,---,0.00,VWS V14.01,2013-01-13 13:54:00,
2013-01-13 05:59:00,23.5,6.8,30.11,ENE,68,7.6,7.6,48,0.00,,---,0.00,VWS V14.01,2013-01-13 13:59:00,
2013-01-13 06:04:00,23.7,6.9,30.11,ENE,69,6.7,8.7,48,0.00,,---,0.00,VWS V14.01,2013-01-13 14:04:00,
2013-01-13 06:09:00,23.4,6.6,30.11,ENE,68,8.1,8.7,48,0.00,,---,0.00,VWS V14.01,2013-01-13 14:09:00,
2013-01-13 06:15:00,22.1,5.4,30.11,ENE,74,8.1,8.1,48,0.00,,---,0.00,VWS V14.01,2013-01-13 14:15:00,
2013-01-13 06:20:00,21.6,4.9,30.11,ENE,78,9.6,9.6,48,0.00,,---,0.00,VWS V14.01,2013-01-13 14:20:00,
2013-01-13 06:26:00,21.4,4.8,30.11,NE,50,10.1,11.4,48,0.00,,---,0.00,VWS V14.01,2013-01-13 14:26:00,
2013-01-13 06:31:00,21.9,5.2,30.11,NE,47,8.1,8.3,48,0.00,,---,0.00,VWS V14.01,2013-01-13 14:31:00,
2013-01-13 06:37:00,21.7,5.1,30.11,ENE,70,7.6,7.6,48,0.00,,---,0.00,VWS V14.01,2013-01-13 14:37:00,
2013-01-13 06:42:00,21.2,5.3,30.11,East,82,7.6,7.6,50,0.00,,---,0.00,VWS V14.01,2013-01-13 14:42:00,
2013-01-13 06:48:00,20.7,4.8,30.11,NE,52,5.8,8.1,50,0.00,,---,0.00,VWS V14.01,2013-01-13 14:48:00,
2013-01-13 06:53:00,20.8,4.9,30.11,NE,42,8.7,8.7,50,0.00,,---,0.00,VWS V14.01,2013-01-13 14:53:00,
2013-01-13 06:58:00,21.2,5.3,30.11,NE,49,8.1,8.7,50,0.00,,---,0.00,VWS V14.01,2013-01-13 14:58:00,
2013-01-13 07:04:00,21.9,5.9,30.11,NE,46,8.7,10.1,50,0.00,,---,0.00,VWS V14.01,2013-01-13 15:04:00,
2013-01-13 07:10:00,22.8,6.8,30.11,NE,41,8.7,10.1,50,0.00,,---,0.00,VWS V14.01,2013-01-13 15:10:00,
2013-01-13 07:16:00,23.4,6.6,30.11,NE,40,8.3,10.1,48,0.00,,---,0.00,VWS V14.01,2013-01-13 15:16:00,
2013-01-13 07:22:00,24.1,7.2,30.11,NE,43,8.3,10.1,48,0.00,,---,0.00,VWS V14.01,2013-01-13 15:22:00,
2013-01-13 07:27:00,25.0,8.1,30.11,NE,45,10.1,12.8,48,0.00,,---,0.00,VWS V14.01,2013-01-13 15:27:00,
2013-01-13 07:33:00,26.1,9.1,30.11,NNE,14,8.7,13.2,48,0.00,,---,0.00,VWS V14.01,2013-01-13 15:33:00,
2013-01-13 07:39:00,27.5,9.7,30.11,NNE,28,10.5,10.5,46,0.00,,---,0.00,VWS V14.01,2013-01-13 15:39:00,
2013-01-13 07:45:00,28.6,10.7,30.11,NNE,23,8.7,13.2,46,0.00,,---,0.00,VWS V14.01,2013-01-13 15:45:00,
2013-01-13 07:50:00,29.7,11.7,30.11,NNE,15,11.9,12.3,46,0.00,,---,0.00,VWS V14.01,2013-01-13 15:50:00,
2013-01-13 07:55:00,30.2,12.2,30.11,North,11,12.3,12.3,46,0.00,,---,0.00,VWS V14.01,2013-01-13 15:55:00,
2013-01-13 08:00:00,30.7,12.7,30.11,NE,51,8.1,10.5,46,0.00,,---,0.00,VWS V14.01,2013-01-13 16:00:00,
2013-01-13 08:05:00,31.1,12.2,30.11,NE,55,10.5,12.3,45,0.00,,---,0.00,VWS V14.01,2013-01-13 16:05:00,
2013-01-13 08:11:00,31.6,12.8,30.11,NE,52,10.1,12.8,45,0.00,,---,0.00,VWS V14.01,2013-01-13 16:11:00,
2013-01-13 08:17:00,32.2,13.2,30.11,NE,52,8.7,11.0,45,0.00,,---,0.00,VWS V14.01,2013-01-13 16:17:00,
2013-01-13 08:22:00,32.5,13.6,30.11,NNE,30,10.1,10.5,45,0.00,,---,0.00,VWS V14.01,2013-01-13 16:22:00,
2013-01-13 08:27:00,32.9,13.9,30.11,NNE,31,8.7,10.1,45,0.00,,---,0.00,VWS V14.01,2013-01-13 16:27:00,
2013-01-13 08:33:00,33.4,14.4,30.11,NE,44,9.6,9.6,45,0.00,,---,0.00,VWS V14.01,2013-01-13 16:33:00,
2013-01-13 08:38:00,33.8,14.7,30.11,NE,43,10.5,12.8,45,0.00,,---,0.00,VWS V14.01,2013-01-13 16:38:00,
2013-01-13 08:44:00,34.3,15.2,30.11,NNE,25,8.3,9.2,45,0.00,,---,0.00,VWS V14.01,2013-01-13 16:44:00,
2013-01-13 08:49:00,34.9,15.7,30.11,NE,52,6.3,8.7,45,0.00,,---,0.00,VWS V14.01,2013-01-13 16:49:00,
2013-01-13 08:55:00,35.1,15.9,30.11,ENE,59,10.5,10.5,45,0.00,,---,0.00,VWS V14.01,2013-01-13 16:55:00,
2013-01-13 09:01:00,35.6,15.6,30.11,NE,42,15.4,15.4,44,0.00,,---,0.00,VWS V14.01,2013-01-13 17:01:00,
2013-01-13 09:07:00,36.0,15.9,30.11,NE,49,7.2,8.3,44,0.00,,---,0.00,VWS V14.01,2013-01-13 17:07:00,
2013-01-13 09:13:00,36.7,14.9,30.11,NE,49,8.7,8.7,40,0.00,,---,0.00,VWS V14.01,2013-01-13 17:13:00,
2013-01-13 09:19:00,37.0,15.3,30.11,NNE,23,6.3,12.8,40,0.00,,---,0.00,VWS V14.01,2013-01-13 17:19:00,
2013-01-13 09:25:00,37.6,14.9,30.11,NNE,31,10.1,14.1,39,0.00,,---,0.00,VWS V14.01,2013-01-13 17:25:00,
2013-01-13 09:31:00,37.6,14.9,30.11,NE,46,12.3,12.3,39,0.00,,---,0.00,VWS V14.01,2013-01-13 17:31:00,
2013-01-13 12:19:00,43.3,14.0,30.05,SSW,193,9.6,10.5,30,0.00,,---,0.00,VWS V14.01,2013-01-13 20:19:00,
2013-01-13 12:24:00,43.5,14.2,30.05,WSW,246,7.6,10.5,30,0.00,,---,0.00,VWS V14.01,2013-01-13 20:24:00,
2013-01-13 12:30:00,43.0,13.7,30.05,NNW,329,3.6,7.6,30,0.00,,---,0.00,VWS V14.01,2013-01-13 20:30:00,
2013-01-13 12:36:00,43.2,13.8,30.05,West,268,10.5,12.3,30,0.00,,---,0.00,VWS V14.01,2013-01-13 20:36:00,
2013-01-13 12:42:00,43.0,13.7,30.05,WSW,251,8.1,8.7,30,0.00,,---,0.00,VWS V14.01,2013-01-13 20:42:00,
2013-01-13 12:48:00,43.2,13.8,30.05,WSW,247,10.5,10.5,30,0.00,,---,0.00,VWS V14.01,2013-01-13 20:48:00,
2013-01-13 12:53:00,43.0,13.7,30.05,NW,311,5.8,8.1,30,0.00,,---,0.00,VWS V14.01,2013-01-13 20:53:00,
2013-01-13 12:59:00,42.6,14.5,30.02,WNW,284,10.1,10.1,32,0.00,,---,0.00,VWS V14.01,2013-01-13 20:59:00,
2013-01-13 13:04:00,42.4,14.3,30.02,West,281,5.4,11.4,32,0.00,,---,0.00,VWS V14.01,2013-01-13 21:04:00,
2013-01-13 13:10:00,42.8,13.5,30.02,NNW,338,4.0,5.4,30,0.00,,---,0.00,VWS V14.01,2013-01-13 21:10:00,
2013-01-13 13:15:00,42.8,13.5,30.02,WSW,241,4.9,4.9,30,0.00,,---,0.00,VWS V14.01,2013-01-13 21:15:00,
2013-01-13 13:21:00,43.0,13.7,30.02,WSW,241,5.8,9.2,30,0.00,,---,0.00,VWS V14.01,2013-01-13 21:21:00,
2013-01-13 13:26:00,43.0,13.7,30.02,NW,313,4.0,4.0,30,0.00,,---,0.00,VWS V14.01,2013-01-13 21:26:00,
2013-01-13 13:31:00,42.6,14.5,30.02,WNW,301,8.1,8.3,32,0.00,,---,0.00,VWS V14.01,2013-01-13 21:31:00,
2013-01-13 13:37:00,43.5,14.2,30.02,WSW,256,12.3,12.3,30,0.00,,---,0.00,VWS V14.01,2013-01-13 21:37:00,
2013-01-13 13:43:00,43.9,14.5,30.02,WSW,239,8.1,8.3,30,0.00,,---,0.00,VWS V14.01,2013-01-13 21:43:00,
2013-01-13 13:49:00,44.2,14.8,30.02,WSW,249,11.0,11.0,30,0.00,,---,0.00,VWS V14.01,2013-01-13 21:49:00,
2013-01-13 13:55:00,43.9,14.5,30.02,WSW,247,8.1,8.1,30,0.00,,---,0.00,VWS V14.01,2013-01-13 21:55:00,
2013-01-13 14:01:00,43.7,14.3,30.02,West,261,7.6,8.1,30,0.00,,---,0.00,VWS V14.01,2013-01-13 22:01:00,
2013-01-13 14:06:00,43.5,14.2,30.02,SW,235,3.1,8.7,30,0.00,,---,0.00,VWS V14.01,2013-01-13 22:06:00,
2013-01-13 14:11:00,43.5,14.2,30.02,SW,236,2.7,8.1,30,0.00,,---,0.00,VWS V14.01,2013-01-13 22:11:00,
2013-01-13 14:16:00,43.7,14.3,30.02,WSW,247,4.9,5.8,30,0.00,,---,0.00,VWS V14.01,2013-01-13 22:16:00,
2013-01-13 14:21:00,43.9,14.5,30.02,WSW,237,8.3,12.3,30,0.00,,---,0.00,VWS V14.01,2013-01-13 22:21:00,
2013-01-13 14:27:00,43.5,14.2,30.02,SW,216,8.7,13.2,30,0.00,,---,0.00,VWS V14.01,2013-01-13 22:27:00,
2013-01-13 14:32:00,43.5,14.2,30.02,SSW,211,4.5,8.1,30,0.00,,---,0.00,VWS V14.01,2013-01-13 22:32:00,
2013-01-13 14:37:00,43.0,13.7,30.02,NW,304,4.5,8.3,30,0.00,,---,0.00,VWS V14.01,2013-01-13 22:37:00,
2013-01-13 14:43:00,42.6,14.5,30.02,NW,305,8.3,11.9,32,0.00,,---,0.00,VWS V14.01,2013-01-13 22:43:00,
2013-01-13 14:49:00,42.3,14.2,30.02,WSW,257,10.5,11.0,32,0.00,,---,0.00,VWS V14.01,2013-01-13 22:49:00,
2013-01-13 14:55:00,41.9,13.9,30.02,NW,314,10.5,15.0,32,0.00,,---,0.00,VWS V14.01,2013-01-13 22:55:00,
2013-01-13 15:01:00,42.1,14.0,30.02,West,269,8.1,14.1,32,0.00,,---,0.00,VWS V14.01,2013-01-13 23:01:00,
2013-01-13 15:06:00,41.7,13.7,30.02,WSW,256,8.1,10.5,32,0.00,,---,0.00,VWS V14.01,2013-01-13 23:06:00,
2013-01-13 15:12:00,41.4,13.4,30.05,NNW,332,10.1,10.1,32,0.00,,---,0.00,VWS V14.01,2013-01-13 23:12:00,
2013-01-13 15:17:00,41.4,13.4,30.05,WNW,292,8.7,11.4,32,0.00,,---,0.00,VWS V14.01,2013-01-13 23:17:00,
2013-01-13 15:23:00,41.4,13.4,30.05,NW,315,7.6,8.7,32,0.00,,---,0.00,VWS V14.01,2013-01-13 23:23:00,
2013-01-13 15:28:00,41.5,13.5,30.02,North,349,5.8,5.8,32,0.00,,---,0.00,VWS V14.01,2013-01-13 23:28:00,
2013-01-13 15:34:00,41.4,13.4,30.02,WNW,292,8.1,8.1,32,0.00,,---,0.00,VWS V14.01,2013-01-13 23:34:00,
2013-01-13 15:39:00,41.2,13.2,30.02,WSW,250,10.1,10.1,32,0.00,,---,0.00,VWS V14.01,2013-01-13 23:39:00,
2013-01-13 15:45:00,41.2,13.2,30.02,WSW,250,10.1,10.1,32,0.00,,---,0.00,VWS V14.01,2013-01-13 23:45:00,
2013-01-13 15:50:00,41.0,13.1,30.02,SW,217,7.2,7.2,32,0.00,,---,0.00,VWS V14.01,2013-01-13 23:50:00,
2013-01-13 15:55:00,40.8,12.9,30.02,West,271,8.7,11.0,32,0.00,,---,0.00,VWS V14.01,2013-01-13 23:55:00,
2013-01-13 16:00:00,40.6,12.7,30.02,West,260,5.8,6.3,32,0.00,,---,0.00,VWS V14.01,2013-01-14 00:00:00,
2013-01-13 16:06:00,40.5,12.6,30.02,West,264,8.7,8.7,32,0.00,,---,0.00,VWS V14.01,2013-01-14 00:06:00,
2013-01-13 16:11:00,40.3,12.4,30.02,WNW,299,5.4,10.1,32,0.00,,---,0.00,VWS V14.01,2013-01-14 00:11:00,
2013-01-13 16:17:00,40.1,12.3,30.02,West,271,10.5,10.5,32,0.00,,---,0.00,VWS V14.01,2013-01-14 00:17:00,
2013-01-13 16:22:00,39.7,11.9,30.02,West,270,8.3,11.0,32,0.00,,---,0.00,VWS V14.01,2013-01-14 00:22:00,
2013-01-13 16:28:00,39.4,11.6,30.02,West,260,13.6,13.6,32,0.00,,---,0.00,VWS V14.01,2013-01-14 00:28:00,
2013-01-13 16:33:00,38.8,11.2,30.02,WSW,249,9.6,12.8,32,0.00,,---,0.00,VWS V14.01,2013-01-14 00:33:00,
2013-01-13 16:38:00,38.8,11.2,30.02,SW,235,10.1,11.0,32,0.00,,---,0.00,VWS V14.01,2013-01-14 00:38:00,
2013-01-13 16:43:00,38.7,11.0,30.02,SW,222,6.3,8.3,32,0.00,,---,0.00,VWS V14.01,2013-01-14 00:43:00,
2013-01-13 16:49:00,38.5,10.9,30.02,SW,220,8.3,8.7,32,0.00,,---,0.00,VWS V14.01,2013-01-14 00:49:00,
2013-01-13 16:54:00,38.3,10.7,30.02,SW,227,5.8,7.6,32,0.00,,---,0.00,VWS V14.01,2013-01-14 00:54:00,
2013-01-13 17:00:00,37.9,10.4,30.02,WSW,243,8.7,10.5,32,0.00,,---,0.00,VWS V14.01,2013-01-14 01:00:00,
2013-01-13 17:06:00,37.8,10.2,30.02,WSW,248,7.6,8.3,32,0.00,,---,0.00,VWS V14.01,2013-01-14 01:06:00,
2013-01-13 17:11:00,37.6,10.1,30.02,WSW,239,5.4,8.1,32,0.00,,---,0.00,VWS V14.01,2013-01-14 01:11:00,
2013-01-13 17:16:00,37.4,9.9,30.02,WSW,248,6.3,6.3,32,0.00,,---,0.00,VWS V14.01,2013-01-14 01:16:00,
2013-01-13 17:21:00,37.4,9.9,30.02,WSW,247,5.8,6.3,32,0.00,,---,0.00,VWS V14.01,2013-01-14 01:21:00,
2013-01-13 17:27:00,37.0,10.6,30.02,WSW,251,4.0,4.9,33,0.00,,---,0.00,VWS V14.01,2013-01-14 01:27:00,
2013-01-13 17:33:00,36.9,10.5,30.02,WSW,238,3.1,4.0,33,0.00,,---,0.00,VWS V14.01,2013-01-14 01:33:00,
2013-01-13 17:39:00,36.7,10.3,30.02,WSW,248,2.7,3.6,33,0.00,,---,0.00,VWS V14.01,2013-01-14 01:39:00,
2013-01-13 17:45:00,36.3,10.0,30.05,WNW,284,4.0,8.1,33,0.00,,---,0.00,VWS V14.01,2013-01-14 01:45:00,
2013-01-13 17:50:00,36.1,9.8,30.05,West,265,4.9,5.8,33,0.00,,---,0.00,VWS V14.01,2013-01-14 01:50:00,
2013-01-13 17:56:00,36.1,9.8,30.05,West,259,6.3,6.3,33,0.00,,---,0.00,VWS V14.01,2013-01-14 01:56:00,
2013-01-13 18:01:00,36.0,9.7,30.05,West,278,4.5,5.4,33,0.00,,---,0.00,VWS V14.01,2013-01-14 02:01:00,
2013-01-13 18:07:00,35.8,9.5,30.05,WSW,256,6.3,6.3,33,0.00,,---,0.00,VWS V14.01,2013-01-14 02:07:00,
2013-01-13 18:13:00,35.6,9.4,30.05,WSW,245,4.9,5.4,33,0.00,,---,0.00,VWS V14.01,2013-01-14 02:13:00,
2013-01-13 18:19:00,35.4,12.1,30.05,WSW,239,2.7,3.6,38,0.00,,---,0.00,VWS V14.01,2013-01-14 02:19:00,
2013-01-13 18:25:00,35.4,12.1,30.05,WSW,239,3.1,3.6,38,0.00,,---,0.00,VWS V14.01,2013-01-14 02:25:00,
2013-01-13 18:31:00,35.4,12.1,30.05,WSW,240,3.1,3.6,38,0.00,,---,0.00,VWS V14.01,2013-01-14 02:31:00,
2013-01-13 18:36:00,35.1,11.7,30.05,WSW,240,2.7,2.7,38,0.00,,---,0.00,VWS V14.01,2013-01-14 02:36:00,
2013-01-13 18:41:00,34.9,11.6,30.05,WSW,239,0.0,0.0,38,0.00,,---,0.00,VWS V14.01,2013-01-14 02:41:00,
2013-01-13 18:47:00,34.5,11.2,30.05,WSW,239,0.0,2.2,38,0.00,,---,0.00,VWS V14.01,2013-01-14 02:47:00,
2013-01-13 18:53:00,34.2,10.9,30.05,WSW,239,0.0,0.0,38,0.00,,---,0.00,VWS V14.01,2013-01-14 02:53:00,
2013-01-13 18:58:00,33.6,10.4,30.05,NW,317,3.6,3.6,38,0.00,,---,0.00,VWS V14.01,2013-01-14 02:58:00,
2013-01-13 19:04:00,32.9,9.8,30.05,WNW,293,3.1,3.1,38,0.00,,---,0.00,VWS V14.01,2013-01-14 03:04:00,
2013-01-13 19:09:00,32.5,9.5,30.05,WNW,290,0.0,2.7,38,0.00,,---,0.00,VWS V14.01,2013-01-14 03:09:00,
2013-01-13 19:14:00,32.4,9.3,30.05,WNW,287,3.1,3.1,38,0.00,,---,0.00,VWS V14.01,2013-01-14 03:14:00,
2013-01-13 19:20:00,31.8,8.8,30.05,West,279,5.4,5.4,38,0.00,,---,0.00,VWS V14.01,2013-01-14 03:20:00,
2013-01-13 19:25:00,31.3,10.9,30.05,WNW,294,5.4,5.4,42,0.00,,---,0.00,VWS V14.01,2013-01-14 03:25:00,
2013-01-13 19:30:00,30.9,10.5,30.05,West,277,2.7,3.1,42,0.00,,---,0.00,VWS V14.01,2013-01-14 03:30:00,
2013-01-13 19:35:00,30.6,10.2,30.05,West,277,0.0,0.0,42,0.00,,---,0.00,VWS V14.01,2013-01-14 03:35:00,
2013-01-13 19:40:00,30.2,9.9,30.05,ESE,116,3.6,4.0,42,0.00,,---,0.00,VWS V14.01,2013-01-14 03:40:00,
2013-01-13 19:45:00,29.8,9.6,30.05,ENE,72,4.0,4.0,42,0.00,,---,0.00,VWS V14.01,2013-01-14 03:45:00,
2013-01-13 19:50:00,29.3,9.1,30.05,ENE,73,3.1,3.6,42,0.00,,---,0.00,VWS V14.01,2013-01-14 03:50:00,
2013-01-13 19:55:00,28.9,8.7,30.05,ENE,78,0.0,0.0,42,0.00,,---,0.00,VWS V14.01,2013-01-14 03:55:00,
2013-01-13 20:01:00,28.6,9.9,30.05,ENE,61,3.1,3.1,45,0.00,,---,0.00,VWS V14.01,2013-01-14 04:01:00,
2013-01-13 20:06:00,27.5,9.7,30.05,ENE,64,3.1,4.0,46,0.00,,---,0.00,VWS V14.01,2013-01-14 04:06:00,
2013-01-13 20:12:00,27.1,9.4,30.05,ENE,65,0.0,0.0,46,0.00,,---,0.00,VWS V14.01,2013-01-14 04:12:00,
2013-01-13 20:18:00,27.0,9.2,30.05,ENE,68,2.7,3.1,46,0.00,,---,0.00,VWS V14.01,2013-01-14 04:18:00,
2013-01-13 20:23:00,26.8,9.0,30.05,East,87,0.0,0.0,46,0.00,,---,0.00,VWS V14.01,2013-01-14 04:23:00,
2013-01-13 20:29:00,26.6,9.6,30.05,East,90,0.0,0.0,48,0.00,,---,0.00,VWS V14.01,2013-01-14 04:29:00,
2013-01-13 20:35:00,25.9,8.9,30.05,East,90,0.0,0.0,48,0.00,,---,0.00,VWS V14.01,2013-01-14 04:35:00,
2013-01-13 20:40:00,25.5,8.6,30.05,SSE,164,0.0,0.0,48,0.00,,---,0.00,VWS V14.01,2013-01-14 04:40:00,
2013-01-13 20:45:00,25.3,8.4,30.05,SSE,148,2.2,2.2,48,0.00,,---,0.00,VWS V14.01,2013-01-14 04:45:00,
2013-01-13 20:50:00,25.2,8.2,30.05,ESE,119,3.6,3.6,48,0.00,,---,0.00,VWS V14.01,2013-01-14 04:50:00,
2013-01-13 20:56:00,24.6,7.7,30.05,ESE,115,0.0,0.0,48,0.00,,---,0.00,VWS V14.01,2013-01-14 04:56:00,
2013-01-13 21:00:00,24.1,7.2,30.05,East,91,0.0,0.0,48,0.00,,---,0.00,VWS V14.01,2013-01-14 05:00:00,
2013-01-13 21:01:00,23.9,7.1,30.05,ENE,72,0.0,0.0,48,0.00,,---,0.00,VWS V14.01,2013-01-14 05:01:00,
2013-01-13 21:02:00,23.9,7.1,30.05,ENE,72,0.0,0.0,48,0.00,,---,0.00,VWS V14.01,2013-01-14 05:02:00,
2013-01-13 21:07:00,23.5,6.8,30.05,ESE,102,0.0,0.0,48,0.00,,---,0.00,VWS V14.01,2013-01-14 05:07:00,
2013-01-13 21:13:00,23.5,6.8,30.05,East,84,0.0,0.0,48,0.00,,---,0.00,VWS V14.01,2013-01-14 05:13:00,
2013-01-13 21:18:00,23.5,7.4,30.05,East,82,0.0,0.0,50,0.00,,---,0.00,VWS V14.01,2013-01-14 05:18:00,
2013-01-13 21:24:00,23.5,7.4,30.05,ESE,115,3.6,3.6,50,0.00,,---,0.00,VWS V14.01,2013-01-14 05:24:00,
2013-01-13 21:29:00,23.4,7.3,30.08,East,100,4.9,4.9,50,0.00,,---,0.00,VWS V14.01,2013-01-14 05:29:00,
2013-01-13 21:34:00,23.2,7.1,30.08,ENE,77,5.4,5.4,50,0.00,,---,0.00,VWS V14.01,2013-01-14 05:34:00,
2013-01-13 21:39:00,22.8,6.8,30.08,NNE,31,3.1,3.1,50,0.00,,---,0.00,VWS V14.01,2013-01-14 05:39:00,
2013-01-13 21:45:00,22.1,6.1,30.08,NNE,18,2.2,2.2,50,0.00,,---,0.00,VWS V14.01,2013-01-14 05:45:00,
2013-01-13 21:51:00,21.6,5.6,30.08,NNE,14,0.0,0.0,50,0.00,,---,0.00,VWS V14.01,2013-01-14 05:51:00,
2013-01-13 21:57:00,21.4,5.4,30.08,North,353,0.0,2.2,50,0.00,,---,0.00,VWS V14.01,2013-01-14 05:57:00,
2013-01-13 22:02:00,21.4,5.4,30.08,NNE,19,0.0,0.0,50,0.00,,---,0.00,VWS V14.01,2013-01-14 06:02:00,
2013-01-13 22:07:00,21.7,5.8,30.08,NE,55,3.6,5.8,50,0.00,,---,0.00,VWS V14.01,2013-01-14 06:07:00,
2013-01-13 22:13:00,22.1,6.1,30.08,ENE,60,4.9,6.3,50,0.00,,---,0.00,VWS V14.01,2013-01-14 06:13:00,
2013-01-13 22:18:00,22.3,6.3,30.08,ENE,66,2.7,5.4,50,0.00,,---,0.00,VWS V14.01,2013-01-14 06:18:00,
2013-01-13 22:24:00,22.3,6.3,30.08,NE,42,5.4,5.4,50,0.00,,---,0.00,VWS V14.01,2013-01-14 06:24:00,
2013-01-13 22:29:00,22.6,6.6,30.08,NE,46,5.8,6.3,50,0.00,,---,0.00,VWS V14.01,2013-01-14 06:29:00,
2013-01-13 22:35:00,23.0,6.9,30.08,NE,47,6.3,7.6,50,0.00,,---,0.00,VWS V14.01,2013-01-14 06:35:00,
2013-01-13 22:40:00,23.2,7.1,30.08,NE,50,5.4,7.6,50,0.00,,---,0.00,VWS V14.01,2013-01-14 06:40:00,
2013-01-13 22:46:00,23.5,7.4,30.08,NE,50,6.3,8.3,50,0.00,,---,0.00,VWS V14.01,2013-01-14 06:46:00,
2013-01-13 22:51:00,23.5,7.4,30.08,NE,50,7.6,8.1,50,0.00,,---,0.00,VWS V14.01,2013-01-14 06:51:00,
2013-01-13 22:57:00,23.7,7.6,30.08,NE,45,5.8,8.1,50,0.00,,---,0.00,VWS V14.01,2013-01-14 06:57:00,
2013-01-13 23:03:00,23.5,6.8,30.08,NE,50,7.2,7.2,48,0.00,,---,0.00,VWS V14.01,2013-01-14 07:03:00,
2013-01-13 23:09:00,23.7,6.9,30.08,NE,46,4.0,5.8,48,0.00,,---,0.00,VWS V14.01,2013-01-14 07:09:00,
2013-01-13 23:15:00,24.3,7.4,30.11,East,81,8.1,8.3,48,0.00,,---,0.00,VWS V14.01,2013-01-14 07:15:00,
2013-01-13 23:20:00,24.6,7.7,30.11,ENE,59,6.3,8.3,48,0.00,,---,0.00,VWS V14.01,2013-01-14 07:20:00,
2013-01-13 23:26:00,25.2,8.2,30.11,NE,46,8.1,8.1,48,0.00,,---,0.00,VWS V14.01,2013-01-14 07:26:00,
2013-01-13 23:31:00,25.2,8.2,30.11,NE,44,8.7,8.7,48,0.00,,---,0.00,VWS V14.01,2013-01-14 07:31:00,
2013-01-13 23:36:00,25.2,8.2,30.11,NE,49,10.1,10.1,48,0.00,,---,0.00,VWS V14.01,2013-01-14 07:36:00,
2013-01-13 23:42:00,25.3,7.7,30.11,NE,46,7.6,8.7,46,0.00,,---,0.00,VWS V14.01,2013-01-14 07:42:00,
2013-01-13 23:47:00,25.2,7.5,30.11,NNE,31,4.0,5.8,46,0.00,,---,0.00,VWS V14.01,2013-01-14 07:47:00,
2013-01-13 23:52:00,24.4,7.6,30.11,ENE,58,4.9,4.9,48,0.00,,---,0.00,VWS V14.01,2013-01-14 07:52:00,
2013-01-13 23:58:00,23.9,4.9,30.11,NE,46,5.8,5.8,44,0.00,,---,0.00,VWS V14.01,2013-01-14 07:58:00,